UB3APB-W3 Weather Reports


Display with metric or nautical units.
time (UTC)temp
F
wind
direction
speed
MPH
gust
MPH
rain 1hr
in
rain 24hr
in
rain mn
in
humidity
%
barometer
mb
20260508133321 54 0.0 0.0 0.00 0.00 0.00 12.7
20260508132814 55 0.0 0.0 0.00 0.00 0.00 12.7
20260508122426 57 0.0 0.0 0.00 0.00 0.00 13.6
20260508121918 58 0.0 0.0 0.00 0.00 0.00 13.7
20260508111423 58 0.0 0.0 0.00 0.00 0.00 14.3
20260508110916 58 0.0 0.0 0.00 0.00 0.00 14.1
20260508100524 61 0.0 0.0 0.00 0.00 0.00 15.4
20260508100016 62 0.0 0.0 0.00 0.00 0.00 15.6
20260508085532 64 0.0 0.0 0.00 0.00 0.00 16.1
20260508085023 63 0.0 0.0 0.00 0.00 0.00 16.1
20260508074523 68 0.0 0.0 0.00 0.00 0.00 15.9
20260508074022 67 0.0 0.0 0.00 0.00 0.00 16.2
20260508063529 68 0.0 0.0 0.00 0.00 0.00 15.7
20260508063018 69 0.0 0.0 0.00 0.00 0.00 15.8
20260508052532 68 0.0 0.0 0.00 0.00 0.00 15.7
20260508052024 68 0.0 0.0 0.00 0.00 0.00 15.3
20260508041519 64 0.0 0.0 0.00 0.00 0.00 15.3
20260508041015 63 0.0 0.0 0.00 0.00 0.00 15.5
20260508030516 59 0.0 0.0 0.00 0.00 0.00 14.8
20260508030010 56 0.0 0.0 0.00 0.00 0.00 14.7
20260508025503 56 0.0 0.0 0.00 0.00 0.00 14.7
20260508015113 54 0.0 0.0 0.00 0.00 0.00 14.1
20260508014606 54 0.0 0.0 0.00 0.00 0.00 14.2
20260508004212 57 0.0 0.0 0.00 0.00 0.00 14.1
20260508003703 58 0.0 0.0 0.00 0.00 0.00 14.0
20260507233319 58 0.0 0.0 0.00 0.00 0.00 10.2
20260507232812 58 0.0 0.0 0.00 0.00 0.00 9.9
20260507222311 53 0.0 0.0 0.00 0.00 0.00 9.5
20260507221806 53 0.0 0.0 0.00 0.00 0.00 9.3
20260507211409 54 0.0 0.0 0.00 0.00 0.00 9.5
20260507210903 54 0.0 0.0 0.00 0.00 0.00 9.5
20260507200836 58 0.0 0.0 0.00 0.00 0.00 10.9
20260507200327 58 0.0 0.0 0.00 0.00 0.00 11.4
20260507195815 58 0.0 0.0 0.00 0.00 0.00 11.2
20260507185313 62 0.0 0.0 0.00 0.00 0.00 11.9
20260507184812 62 0.0 0.0 0.00 0.00 0.00 12.9
20260507174313 65 0.0 0.0 0.00 0.00 0.00 13.8
20260507173806 66 0.0 0.0 0.00 0.00 0.00 12.0
20260507163424 72 0.0 0.0 0.00 0.00 0.00 10.4
20260507162916 73 0.0 0.0 0.00 0.00 0.00 10.4
20260507152404 78 0.0 0.0 0.00 0.00 0.00 9.3
20260507151904 78 0.0 0.0 0.00 0.00 0.00 8.7